141  
ASUS44 KMEG 270910  
RWRMEG  
MEMPHIS CWA HOURLY WEATHER ROUNDUP  
NATIONAL WEATHER SERVICE MEMPHIS TN  
400 AM CDT SAT MAY 27 2017  
   
..WEST TENNESSEE
 
 
 
CITY SKY/WX TMP DP RH WIND PRES REMARKS
 
MEMPHIS INTL PTCLDY 76 70 82 SW7 29.87S  
NWS MEMPHIS N/A 76 N/A N/A MISG N/A  
JACKSON CLOUDY 74 68 81 S8 29.87F  
COVINGTON MOCLDY 72 68 88 S3 29.86S  
BOLIVAR PTCLDY 73 66 78 S5 29.88S  
LEXINGTON MOCLDY 68 63 83 MISG 29.88F  
SELMER PTCLDY 70 64 83 S5 29.89F  
SAVANNAH CLOUDY 66 64 94 SE3 29.89F  
DYERSBURG N/A N/A N/A N/A MISG N/A  
UNION CITY PTCLDY 72 68 88 S3 29.85S  
PARIS CLOUDY 70 66 88 SW5 29.86F  
HUNTINGDON CLOUDY 70 66 88 S3 29.86F  
 
   
..EASTERN ARKANSAS
 
 
 
CITY SKY/WX TMP DP RH WIND PRES REMARKS
 
JONESBORO PTCLDY 75 70 84 SW8 29.84S  
WEST MEMPHIS PTCLDY 75 71 87 S9 29.85S  
BATESVILLE CLOUDY 75 72 88 S7 29.84R  
NEWPORT CLEAR 74 71 91 S9 29.84S  
WALNUT RIDGE CLOUDY 72 66 83 S6 29.83S  
BLYTHEVILLE PTCLDY 74 70 87 S7 29.85S  
SEARCY CLOUDY 75 73 93 S5 29.86F  
STUTTGART CLOUDY 75 63 64 S14 29.87S  
PINE BLUFF CLOUDY 75 71 87 S13 29.87S  
MONTICELLO PTCLDY 74 70 87 SW9 29.89S  
 
   
..NORTH MISSISSIPPI
 
 
 
CITY SKY/WX TMP DP RH WIND PRES REMARKS
 
TUPELO MOCLDY 72 62 71 S6 29.92F  
OXFORD CLEAR 72 64 78 S8 29.92F  
BATESVILLE PTCLDY 74 67 79 S8 29.90S  
CLARKSDALE N/A 75 75 100 MISG 29.88S  
CORINTH CLEAR 72 63 73 S8 29.90F  
GREENWOOD CLEAR 73 68 84 S10 29.92F  
COLUMBUS CLOUDY 71 65 83 S10 29.94F  
STARKVILLE CLOUDY 68 63 83 S7 29.97F  
GOLDEN TRIANGL CLOUDY 70 61 73 SW12 29.93F  
 
   
..SOUTHEAST MISSOURI
 
 
 
CITY SKY/WX TMP DP RH WIND PRES REMARKS
 
KENNETT CLOUDY 73 70 88 SW3 29.84S FOG  
MALDEN CLOUDY 72 68 88 S5 29.86R  
WEST PLAINS CLOUDY 71 70 96 SE9 29.83F FOG  
POPLAR BLUFF CLOUDY 69 68 96 CALM 29.83S FOG  
CAPE GIRARDEAU CLOUDY 68 66 93 CALM 29.83F FOG  
 
   
..NORTHWEST ALABAMA
 
 
 
CITY SKY/WX TMP DP RH WIND PRES REMARKS
 
MUSCLE SHOALS PTCLDY 71 61 70 S6 29.94S  
 
   
..MIDDLE TENNESSEE
 
 
 
CITY SKY/WX TMP DP RH WIND PRES REMARKS
 
NASHVILLE MOCLDY 73 61 65 S7 29.91F  
CLARKSVILLE CLEAR 71 61 70 SW5 29.87F  
COLUMBIA MOCLDY 68 63 83 SW3 29.90F  
 
   
..WESTERN KENTUCKY
 
 
 
CITY SKY/WX TMP DP RH WIND PRES REMARKS
 
PADUCAH MOCLDY 69 66 90 CALM 29.84S  
FORT CAMPBELL CLOUDY 72 63 73 S5 29.87F  
 
   
..CENTRAL ARKANSAS
 
 
 
CITY SKY/WX TMP DP RH WIND PRES REMARKS
 
LITTLE ROCK PTCLDY 75 74 96 SW10 29.85S  
 
SKY/WX REPORTED AS FAIR MEANS FEW OR NO CLOUDS BELOW  
12 THOUSAND FEET.  
 
 
 
CLICK HERE TO GO TO PREVIOUS BULLETINS.

The Nexlab TN Page
The Nexlab MS Page
The Nexlab AR Page Main Text Page